Location: Ch�risy
(50.2331°N, 2.9131°E)
Time: 18:53:58
(UTC+00:00)

SJ 16-02 - Pass Details

Date: 17 January 2021
Orbit: 606 x 615 km, 75.0° (Epoch: 27 February)

Event Time Altitude Azimuth Distance (km) Brightness Sun altitude
Rises 19:42:35 0° 215° (SW) 2,869 5.1 -32.2°
Reaches altitude 10° 19:44:53 10° 221° (SW) 1,967 4.3 -32.5°
Enters shadow 19:45:42 15° 224° (SW) 1,656 3.9 -32.7°
